Retour au catalogue

NAVSTAR 38

USA 126

ActifNavigationMEO
NORAD 23953·PAYLOAD·🇺🇸 United States

Lancé Jul 16, 1996 depuis Cape Canaveral Space Force Station

Loading…

Prochains Passages (prochaines 24 heures)

TLE

FraisSource: Space-Track

Époque: Sep 13, 2026, 06:47 UTC

1 23953U 96041A   26256.28327742 -.00000075  00000-0  00000-0 0  9991
2 23953  56.0977  43.5415 0062762 110.3928 254.3327  1.88695526216451

Suivez NAVSTAR 38 en temps réel avec AllMySat

Download on the App Store